Regional Weather Roundup
Issued by NWS Huntsville, AL

Home | Current Version | Previous Version | Text Only | Print | Product List | Glossary On
Versions: 1 2 3 4 5 6 7 8 9 10 11 12 13 14 15 16 17 18 19 20 21 22 23 24 25 26 27
000
ASUS44 KHUN 280610
RWRHUN

WEATHER ROUNDUP FOR THE TENNESSEE VALLEY
NATIONAL WEATHER SERVICE HUNTSVILLE AL
100 AM CDT TUE MAR 28 2017

ALZ001>004-280700-
NORTHWEST ALABAMA

CITY           SKY/WX    TMP DP  RH WIND       PRES   REMARKS
SHOALS AIRPORT PTCLDY    59  57  93 CALM      29.90F
6HR MIN TEMP:  59; 6HR MAX TEMP:  66; 6HR PCP:  0.93;

$$

ALZ005>007-016-280700-
NORTH CENTRAL ALABAMA

CITY           SKY/WX    TMP DP  RH WIND       PRES   REMARKS
DECATUR AP     PTCLDY    57  57 100 SE6       29.90S
6HR MIN TEMP:  57; 6HR MAX TEMP:  63; 6HR PCP:  0.45;

HUNTSVILLE AP  MOCLDY    59  59 100 SE6       29.91F
6HR MIN TEMP:  59; 6HR MAX TEMP:  65; 6HR PCP:  0.39;

MERIDIANVILLE  PTCLDY    57  55  94 CALM      29.91S
REDSTONE ARSN  MOCLDY    59  57  94 S5        29.91S
VINEMONT AP    TSTM      60  59  96 S5        29.95F
$$

ALZ008>010-280700-
NORTHEAST ALABAMA

CITY           SKY/WX    TMP DP  RH WIND       PRES   REMARKS
ALBERTVILLE    CLOUDY    59  59 100 CALM      29.97R
FORT PAYNE     RAIN      57  54  88 SE8       29.94F
SCOTTSBORO AP  CLOUDY    59  59 100 SW3       29.93F
SCOTTSBORO HCN   N/A     59 N/A N/A MISG        N/A
VALLEY HEAD      N/A     57 N/A N/A MISG        N/A
$$

TNZ076-096-097-280700-
SOUTHEASTERN MIDDLE TENNESSEE

CITY           SKY/WX    TMP DP  RH WIND       PRES   REMARKS
TULLAHOMA      CLEAR     55  55 100 S3          N/A
WINCHESTER     MOCLDY    57  55  94 SE6       29.91S
$$

...SURROUNDING SITES...

CITY           SKY/WX    TMP DP  RH WIND       PRES   REMARKS
ATLANTA        CLOUDY    65  60  84 W6        29.96S
ANNISTON       CLOUDY    64  63  96 W5        29.95S
BIRMINGHAM     MOCLDY    67  61  81 SW14      29.95S
CHATTANOOGA    CLOUDY    59  59 100 W3        29.94F
CORINTH        MOCLDY    59  59 100 CALM      29.89S FOG
DALTON         TSTM      57  57 100 NE3       29.97F
GADSDEN        LGT RAIN  64  62  93 CALM      29.94S
GOLDEN TRNGL   CLOUDY   N/A N/A N/A S13       29.87S
HALEYVILLE     LGT RAIN  60  59  96 SW6       29.94S
JACKSON TN     MOCLDY    56  56 100 SW3       29.90R
MEMPHIS        PTCLDY    63  58  83 E5        29.90S
NASHVILLE      PTCLDY    59  57  93 W5        29.88R
OXFORD MS      CLOUDY    63  57  82 E6        29.92S
ROME           TSTM      62  59  90 N9        29.97R
SAVANNAH       FOG       61  59  94 N3        29.89R VSB 0
TUPELO         CLOUDY    64  60  87 CALM      29.90S FOG
TUSCALOOSA     CLOUDY    65  64  97 S7        29.93F
$$

...GULF COAST WEATHER...

CITY           SKY/WX    TMP DP  RH WIND       PRES   REMARKS
GULFPORT       PTCLDY    73  69  87 S7        29.96F
PASCAGOULA     MOCLDY    71  67  87 S6        29.98S
MOBILE         PTCLDY    69  66  90 S6        29.99S
GULF SHORES    CLOUDY    69  69 100 S8        29.99S
PENSACOLA      CLOUDY    70  68  93 S8        29.99S
DESTIN         PTCLDY    72  72 100 CALM      30.00S
PANAMA CITY    CLOUDY    68  68  98 S7        30.02S
APPALACHICOLA  PTCLDY    65  65 100 W3        30.02S FOG
$$





USA.gov is the U.S. government's official web portal to all federal, state and local government web resources and services.